Effective Sunday, March 17, 2024, the National Weather Service National Data Buoy Center will discontinue its Dial-A-Buoy Interactive Voice Response system. For more information, see Service Change Notice 24-06 (PDF).

Station NWWH1 - 1611400 - Nawiliwili, HI Image indicating link to RSS feed of recent meteorological observations for station NWWH1


Conditions at NWWH1 as of
(1:18 pm HAST)
2318 GMT on 02/27/2024:
     

Click on the graph icon in the table below to see a time series plot of the last five days of that observation.

5-day plot - Wind Direction Wind Direction (WDIR): NE ( 50 deg true )
5-day plot - Wind Speed Wind Speed (WSPD): 13.0 kts
5-day plot - Wind Gust Wind Gust (GST): 17.1 kts
5-day plot - Atmospheric Pressure Atmospheric Pressure (PRES):30.19 in
5-day plot - Water Temperature Water Temperature (WTMP): 78.1 °F
5-day plot - Wind Speed at 10 Meters Wind Speed at 10 meters (WSPD10M): 13.6 kts
5-day plot - Wind Speed at 20 Meters Wind Speed at 20 meters (WSPD20M): 15.5 kts
5-day plot -  Wind Speed, Wind Gust and Atmospheric Pressure Combined plot of Wind Speed, Gust, and Air Pressure
NOS Water Level Observation Network Water Level
Previous observations
TIME
(HAST)
5-day plot - Wind Direction
WDIR
 
5-day plot - Wind Speed
WSPD
kts
5-day plot - Wind Gust
GST
kts
5-day plot - Wave Height
WVHT
ft
5-day plot - Dominant Wave Period
DPD
sec
5-day plot - Average Wave Period
APD
sec
5-day plot - Mean Wave Direction
MWD
 
5-day plot - Atmospheric Pressure
PRES
in
5-day plot - Pressure Tendency
PTDY
in
5-day plot - Air Temperature
ATMP
°F
5-day plot - Water Temperature
WTMP
°F
5-day plot - Dew Point
DEWP
°F
5-day plot - Salinity
SAL
psu
5-day plot - Visibility
VIS
nmi
5-day plot - Tide (above MLLW)
TIDE
ft
2024-02-27 01:12 pm NE 12.0 17.1----30.19-- 78.3----
2024-02-27 01:06 pmENE 14.0 18.1----30.19-- 78.3----
2024-02-27 01:00 pm-------30.20-0.04------
2024-02-27 12:54 pm-------30.20-------
2024-02-27 12:48 pm NE 14.0 19.0----30.21- 74.1-----
2024-02-27 12:42 pmENE 15.9 18.1----30.21- 74.1 78.6----
2024-02-27 12:36 pm NE 15.0 20.0----30.21- 74.1 78.4----
2024-02-27 12:30 pmENE 14.0 19.0----30.21- 74.1 78.3----
2024-02-27 12:24 pmENE 13.0 18.1----30.22- 74.5 77.7----
2024-02-27 12:18 pm NE 13.0 18.1----30.22- 74.7 77.7----
2024-02-27 12:12 pmENE 15.9 20.0----30.22- 74.1 77.4----
2024-02-27 12:06 pmENE 15.0 19.0----30.22- 74.1 77.4----
2024-02-27 12:00 pmENE 15.0 21.0----30.22-0.02 74.5 77.4----
2024-02-27 11:54 amENE 18.1 20.0----30.22- 73.8 77.5----
2024-02-27 11:48 amENE 15.0 19.0----30.22- 74.3-----
2024-02-27 11:42 am NE 13.0 19.0----30.22- 74.5 77.7----
2024-02-27 11:36 amENE 15.0 20.0----30.22- 74.1 78.1----
2024-02-27 11:30 am NE 14.0 22.0----30.23- 74.5 77.9----
2024-02-27 11:24 am NE 14.0 18.1----30.23- 74.3 78.3----
2024-02-27 11:18 am NE 15.9 20.0----30.23- 73.9 78.3----
2024-02-27 11:12 amENE 15.9 20.0----30.23- 74.1 77.7----
2024-02-27 11:06 amENE 15.9 20.0----30.23- 74.1 77.9----
2024-02-27 11:00 amENE 18.1 20.0----30.24+0.02 73.9 77.5----
2024-02-27 10:54 amENE 17.1 20.0----30.24- 74.1 77.5----
2024-02-27 10:48 amENE 15.0 19.0----30.24- 74.3 77.9----
2024-02-27 10:42 amENE 14.0 21.0----30.24- 74.3 78.1----
2024-02-27 10:36 amENE 14.0 20.0----30.24- 74.3 77.5----
2024-02-27 10:30 amENE 15.0 18.1----30.24- 73.9 76.8----
2024-02-27 10:24 amENE 15.9 20.0----30.24- 73.9 76.6----
2024-02-27 10:18 amENE 15.0 20.0----30.24- 73.8 76.8----
2024-02-27 10:12 amENE 17.1 20.0----30.24- 73.8 76.8----
2024-02-27 10:06 am NE 12.0 19.0----30.24- 74.1 75.9----
2024-02-27 10:00 amENE 15.0 19.0----30.24+0.05 73.9 76.3----
2024-02-27 09:54 amENE 13.0 19.0----30.24- 73.9 76.1----
2024-02-27 09:48 amENE 14.0 18.1----30.24- 73.8 75.9----
2024-02-27 09:42 amENE 14.0 17.1----30.24- 73.9 75.0----
2024-02-27 09:36 amENE 14.0 18.1----30.25- 73.9 73.4----
2024-02-27 09:30 am NE 13.0 18.1----30.25- 73.8 73.2----
2024-02-27 09:24 amENE 15.9 19.0----30.25- 73.8 73.8----
2024-02-27 09:18 amENE 14.0 19.0----30.25- 73.6 74.1----
2024-02-27 09:12 amENE 15.0 19.0----30.24- 73.6 74.5----
2024-02-27 09:06 amENE 13.0 19.0----30.24- 73.6 74.3----
2024-02-27 09:00 amENE 17.1 20.0----30.24+0.05 73.2 74.1----
2024-02-27 08:54 amENE 15.0 20.0----30.24- 73.4 73.9----
2024-02-27 08:48 amENE 18.1 21.0----30.23- 73.0 73.9----
2024-02-27 08:42 amENE 17.1 20.0----30.23- 73.0 74.1----
2024-02-27 08:36 amENE 17.1 21.0----30.23- 73.0 73.9----
2024-02-27 08:30 amENE 17.1 20.0----30.23- 72.9 73.9----
2024-02-27 08:24 amENE 17.1 20.0----30.22- 72.9 74.1----
2024-02-27 08:18 amENE 15.0 19.0----30.22- 72.9 74.3----
2024-02-27 08:12 amENE 15.0 21.0----30.22- 72.7 74.1----
2024-02-27 08:06 am NE 15.9 20.0----30.22- 72.5 74.1----
2024-02-27 08:00 amENE 14.0 20.0----30.22+0.03 72.3 74.5----
2024-02-27 07:54 am NE 15.0 20.0----30.22- 72.3 74.1----
2024-02-27 07:48 am NE 13.0 20.0----30.22- 72.1 74.1----
2024-02-27 07:42 am NE 12.0 18.1----30.21- 72.1 74.1----
2024-02-27 07:36 am NE 14.0 20.0----30.21- 72.0 74.1----
2024-02-27 07:30 amENE 18.1 20.0----30.21- 72.3 74.5----
2024-02-27 07:24 amENE 17.1 20.0----30.21- 72.1 74.7----
2024-02-27 07:18 amENE 17.1 21.0----30.20- 72.5 74.7----
2024-02-27 07:12 amENE 17.1 22.9----30.20- 72.3 74.7----
2024-02-27 07:06 amENE 17.1 21.0----30.20- 72.1 74.5----
2024-02-27 07:00 amENE 18.1 21.0----30.19+0.01 72.1 74.5----
2024-02-27 06:54 amENE 18.1 21.0----30.19- 72.0 74.7----
2024-02-27 06:48 amENE 15.0 19.0----30.19- 72.1 74.5----
2024-02-27 06:42 amENE 14.0 19.0----30.19- 72.0 74.7----
2024-02-27 06:36 amENE 14.0 20.0----30.19- 72.0 74.7----
2024-02-27 06:30 amENE 18.1 21.0----30.18- 72.3 74.5----
2024-02-27 06:24 amENE 15.9 20.0----30.18- 72.1 74.7----
2024-02-27 06:18 amENE 15.0 19.0----30.18- 72.0 74.7----
2024-02-27 06:12 amENE 14.0 21.0----30.19- 72.0 74.7----
2024-02-27 06:06 amENE 15.9 19.0----30.19- 71.8 74.7----
2024-02-27 06:00 amENE 14.0 18.1----30.19+0.00 72.0 74.8----
2024-02-27 05:54 amENE 14.0 19.0----30.19- 72.1 74.8----
2024-02-27 05:48 amENE 12.0 18.1----30.19- 72.1 74.8----
2024-02-27 05:42 amENE 13.0 18.1----30.19- 72.3 74.8----
2024-02-27 05:36 amENE 17.1 19.0----30.19- 72.5 74.7----
2024-02-27 05:30 amENE 15.9 21.0----30.19- 72.5 74.7----
2024-02-27 05:24 amENE 17.1 18.1----30.19- 72.3 74.8----
2024-02-27 05:18 amENE 15.9 18.1----30.19- 72.1 74.8----
2024-02-27 05:12 amENE 14.0 18.1----30.19- 72.3 74.8----
2024-02-27 05:06 amENE 15.0 19.0----30.19- 72.5 75.0----
2024-02-27 05:00 amENE 14.0 19.0----30.19-0.01- 75.0----
2024-02-27 04:54 am NE 14.0 19.0----30.18-- 75.0----
2024-02-27 04:48 amENE 15.9 19.0----30.18- 72.1 75.0----
2024-02-27 04:42 amENE 15.0 20.0----30.19- 72.0 75.0----
2024-02-27 04:36 amENE 13.0 20.0----30.19- 72.0 75.0----
2024-02-27 04:30 amENE 15.0 19.0----30.19- 72.0 75.0----
2024-02-27 04:24 amENE 15.0 18.1----30.19- 72.1 75.0----
2024-02-27 04:18 amENE 15.0 20.0----30.19- 72.1 75.0----
2024-02-27 04:12 amENE 15.9 21.0----30.19- 72.1 74.8----
2024-02-27 04:06 amENE 17.1 21.0----30.18- 72.3 75.0----
2024-02-27 04:00 amENE 17.1 21.0----30.18-0.03 72.3 75.0----
2024-02-27 03:54 amENE 15.9 20.0----30.18- 72.1 75.0----
2024-02-27 03:48 amENE 18.1 22.0----30.18- 72.3 75.0----
2024-02-27 03:42 amENE 19.0 22.0----30.18- 72.5 75.0----
2024-02-27 03:36 amENE 14.0 15.9----30.18- 72.0 75.0----
2024-02-27 03:30 amENE 12.0 17.1----30.19- 71.6 75.0----
2024-02-27 03:24 amENE 13.0 19.0----30.19- 71.6 74.8----
2024-02-27 03:18 amENE 15.0 19.0----30.19- 71.4 74.8----
2024-02-27 03:12 amENE 15.0 19.0----30.19- 71.8 74.8----
2024-02-27 03:06 amENE 15.9 20.0----30.19- 71.6 74.8----
2024-02-27 03:00 amENE 17.1 21.0----30.18-0.04 72.1 75.0----
2024-02-27 02:54 amENE 18.1 22.0----30.19- 72.1 75.0----
2024-02-27 02:48 amENE 20.0 22.9----30.19- 72.1 74.8----
2024-02-27 02:42 amENE 17.1 26.0----30.19- 72.0 74.8----
2024-02-27 02:36 am E 21.0 22.9----30.18- 72.1 74.8----
2024-02-27 02:30 amENE 18.1 21.0----30.19- 72.3 75.0----
2024-02-27 02:24 amENE 14.0 19.0----30.19- 72.1 75.0----
2024-02-27 02:18 amENE 14.0 18.1----30.19- 72.1 74.8----
2024-02-27 02:12 amENE 15.9 20.0----30.19- 72.1 75.0----
2024-02-27 02:06 amENE 17.1 20.0----30.19- 72.1 75.0----
2024-02-27 02:00 amENE 15.0 22.0----30.19-0.03 72.3 74.8----
2024-02-27 01:54 amENE 17.1 21.0----30.20- 72.0 75.0----
2024-02-27 01:48 amENE 18.1 22.0----30.20- 71.6 74.8----
2024-02-27 01:42 amENE 15.0 20.0----30.20- 72.1 74.8----
2024-02-27 01:36 amENE 17.1 20.0----30.20- 72.0 74.8----
2024-02-27 01:30 amENE 19.0 22.9----30.20- 72.1 74.8----
2024-02-27 01:24 amENE 17.1 22.0----30.20- 71.4 74.8----
2024-02-27 01:18 amENE 17.1 22.9----30.20- 71.4 74.8----
2024-02-27 01:12 am NE 17.1 21.0----30.21- 71.2 74.8----
2024-02-27 01:06 amENE 15.9 19.0----30.21- 71.8 74.8----
2024-02-27 01:00 amENE 17.1 21.0----30.21+0.00- 74.8----
2024-02-27 12:54 amENE 15.0 19.0----30.21-- 74.8----
2024-02-27 12:48 amENE 15.9 19.0----30.21- 71.8 74.8----
2024-02-27 12:42 amENE 14.0 21.0----30.21- 72.1 74.8----
2024-02-27 12:36 amENE 17.1 21.0----30.21- 72.0 74.8----
2024-02-27 12:30 amENE 17.1 22.0----30.21- 72.1 74.8----
2024-02-27 12:24 amENE 15.0 19.0----30.21- 72.5 74.8----
2024-02-27 12:18 amENE 13.0 18.1----30.22- 71.6 74.8----
2024-02-27 12:12 amENE 7.0 9.9----30.22- 71.2 74.8----
2024-02-27 12:06 amNNE 8.0 12.0----30.22- 70.3 74.8----
2024-02-27 12:00 amNNE 8.0 14.0----30.22+0.00 70.5 74.8----
2024-02-26 11:54 pmNNE 9.9 14.0----30.22- 70.7 74.8----
2024-02-26 11:48 pmNNE 12.0 14.0----30.22- 70.7 74.8----
2024-02-26 11:42 pm NE 11.1 18.1----30.22- 71.2 74.8----
2024-02-26 11:36 pm NE 14.0 19.0----30.23- 71.2 74.8----
2024-02-26 11:30 pm NE 14.0 20.0----30.22- 71.4 74.8----
2024-02-26 11:24 pm NE 14.0 17.1----30.23- 71.4 74.8----
2024-02-26 11:18 pmENE 15.9 21.0----30.23- 71.6 74.8----
2024-02-26 11:12 pmENE 17.1 21.0----30.22- 72.0 74.8----
2024-02-26 11:06 pmENE 15.9 22.0----30.22- 71.6 74.8----
2024-02-26 11:00 pm NE 13.0 17.1----30.22+0.03 71.1 74.7----
2024-02-26 10:54 pmENE 14.0 19.0----30.22- 71.1 74.7----
2024-02-26 10:48 pmENE 19.0 22.9----30.22- 71.6 74.7----
2024-02-26 10:42 pmENE 15.9 22.0----30.22- 72.5 74.7----
2024-02-26 10:36 pmENE 15.0 21.0----30.22- 72.3 74.7----
2024-02-26 10:30 pmENE 18.1 22.9----30.21- 72.5 74.7----
2024-02-26 10:24 pmENE 19.0 22.9----30.22- 72.7 74.7----
2024-02-26 10:18 pmENE 18.1 22.9----30.22- 72.5 74.7----
2024-02-26 10:12 pmENE 18.1 25.1----30.21- 72.5 74.8----
2024-02-26 10:06 pmENE 21.0 25.1----30.21- 72.5 74.8----
2024-02-26 10:00 pmENE 17.1 24.1----30.22+0.03 72.3 74.8----
2024-02-26 09:54 pmENE 17.1 22.9----30.21- 72.3 74.8----
2024-02-26 09:48 pmENE 21.0 24.1----30.21- 72.3 74.8----
2024-02-26 09:42 pmENE 19.0 22.0----30.22- 72.3 74.8----
2024-02-26 09:36 pmENE 18.1 22.9----30.22- 72.3 74.8----
2024-02-26 09:30 pmENE 17.1 22.0----30.22- 72.5 74.8----
2024-02-26 09:24 pmENE 19.0 22.9----30.22- 72.5 75.0----
2024-02-26 09:18 pmENE 20.0 25.1----30.22- 72.7 75.0----
2024-02-26 09:12 pmENE 19.0 22.9----30.22- 72.3 75.0----
2024-02-26 09:06 pmENE 17.1 22.9----30.22- 72.0 75.0----
2024-02-26 09:00 pmENE 19.0 22.9----30.22+0.05 72.1 75.0----
2024-02-26 08:54 pmENE 20.0 25.1----30.22- 72.3 75.0----
2024-02-26 08:48 pmENE 19.0 22.0----30.22- 72.7 75.0----
2024-02-26 08:42 pmENE 19.0 24.1----30.21- 72.7 74.8----
2024-02-26 08:36 pmENE 18.1 24.1----30.21- 72.7 74.8----
2024-02-26 08:30 pmENE 18.1 24.1----30.21- 72.7 75.0----
2024-02-26 08:24 pmENE 18.1 20.0----30.21- 72.5 74.8----
2024-02-26 08:18 pmENE 18.1 22.0----30.21- 72.7 75.0----
2024-02-26 08:12 pmENE 19.0 25.1----30.20- 72.9 75.0----
2024-02-26 08:06 pmENE 19.0 21.0----30.20- 72.7 74.8----
2024-02-26 08:00 pmENE 19.0 24.1----30.20+0.05 72.5 75.0----
2024-02-26 07:54 pmENE 18.1 22.9----30.19- 72.5 74.8----
2024-02-26 07:48 pmENE 18.1 22.9----30.19- 72.5 75.0----
2024-02-26 07:42 pmENE 17.1 22.9----30.19- 72.5 74.8----
2024-02-26 07:36 pmENE 18.1 22.9----30.19- 72.7 74.8----
2024-02-26 07:30 pmENE 20.0 24.1----30.19- 72.5 74.8----
2024-02-26 07:24 pmENE 20.0 26.0----30.18- 72.0 74.8----
2024-02-26 07:18 pmENE 15.0 27.0----30.18- 70.5 74.8----
2024-02-26 07:12 pm NE 14.0 19.0----30.18- 72.0 74.8----
2024-02-26 07:06 pmENE 14.0 19.0----30.18- 72.0 74.8----
2024-02-26 07:00 pm NE 14.0 19.0----30.18+0.04 71.8 74.8----
2024-02-26 06:54 pmENE 15.9 22.0----30.18- 71.8 74.8----
2024-02-26 06:48 pmENE 18.1 22.0----30.17- 72.5 74.8----
2024-02-26 06:42 pmENE 14.0 21.0----30.18- 72.3 75.0----
2024-02-26 06:36 pmENE 19.0 24.1----30.17- 72.5 75.0----
2024-02-26 06:30 pmENE 21.0 24.1----30.17- 72.3 74.8----
2024-02-26 06:24 pmENE 19.0 22.9----30.17- 72.5 74.8----
2024-02-26 06:18 pmENE 19.0 22.9----30.17- 72.3 74.8----
2024-02-26 06:12 pmENE 17.1 22.9----30.17- 72.7 74.8----
2024-02-26 06:06 pmENE 20.0 22.9----30.16- 72.5 75.0----
2024-02-26 06:00 pmENE 20.0 25.1----30.16+0.00 72.3 74.8----
2024-02-26 05:54 pmENE 20.0 26.0----30.16- 72.5 74.8----
2024-02-26 05:48 pmENE 19.0 25.1----30.16- 72.3 74.8----
2024-02-26 05:42 pmENE 17.1 21.0----30.16- 72.5 74.8----
2024-02-26 05:36 pmENE 15.0 22.0----30.16- 72.7 74.8----
2024-02-26 05:30 pmENE 17.1 22.0----30.16- 72.3 74.8----
2024-02-26 05:24 pmENE 19.0 22.9----30.16- 72.5 74.8----
2024-02-26 05:18 pmENE 18.1 24.1----30.16- 72.5 74.8----
2024-02-26 05:12 pmENE 17.1 21.0----30.16- 72.7 74.8----
2024-02-26 05:06 pmENE 18.1 22.9----30.15- 72.7 74.8----
2024-02-26 05:00 pmENE 19.0 22.9----30.15-0.03 72.9 74.8----
2024-02-26 04:54 pmENE 17.1 22.0----30.15- 72.9 75.0----
2024-02-26 04:48 pmENE 18.1 22.0----30.15- 72.7 75.0----
2024-02-26 04:42 pmENE 18.1 22.0----30.15- 72.7 75.0----
2024-02-26 04:36 pmENE 17.1 22.9----30.15- 72.0 75.0----
2024-02-26 04:30 pmENE 18.1 22.0----30.15- 72.7 74.8----
2024-02-26 04:24 pmENE 18.1 22.9----30.15- 72.5 74.8----
2024-02-26 04:18 pmENE 18.1 22.0----30.15- 72.7 74.8----
2024-02-26 04:12 pmENE 18.1 24.1----30.14- 72.9 74.7----
2024-02-26 04:06 pmENE 18.1 22.0----30.14- 72.9 74.7----
2024-02-26 04:00 pmENE 15.9 22.9----30.14-0.04- 74.7----
2024-02-26 03:54 pmENE 19.0 22.9----30.14-- 74.7----
2024-02-26 03:48 pmENE 19.0 22.9----30.15-- 74.7----
2024-02-26 03:42 pmENE 17.1 21.0----30.15-- 74.7----
2024-02-26 03:36 pmENE 18.1 22.0----30.15-- 74.8----
2024-02-26 03:30 pm E 19.0 22.9----30.15- 72.3 74.8----
2024-02-26 03:24 pmENE 19.0 22.9----30.15- 72.7 74.8----
2024-02-26 03:18 pmENE 15.9 20.0----30.16- 73.0 74.8----
2024-02-26 03:12 pmENE 18.1 22.0----30.16- 72.3 74.8----
2024-02-26 03:06 pmENE 20.0 22.9----30.16- 72.7 74.8----
2024-02-26 03:00 pmENE 17.1 21.0----30.16-0.06 72.7-----
2024-02-26 02:54 pmENE 19.0 22.0----30.16- 72.3-----
2024-02-26 02:48 pmENE 15.9 24.1----30.16- 72.7 74.8----
2024-02-26 02:42 pmENE 18.1 21.0----30.16- 72.5 74.8----
2024-02-26 02:36 pm NE 17.1 24.1----30.16- 72.1 74.8----
2024-02-26 02:30 pm E 15.9 19.0----30.16-------
2024-02-26 02:24 pm E 15.0 20.0----30.17-------
2024-02-26 02:18 pmENE 12.0 17.1----30.17- 72.7 74.7----
2024-02-26 02:12 pm NE 12.0 17.1----30.17- 72.7 74.5----
2024-02-26 02:06 pmENE 15.0 20.0----30.17- 72.3 74.5----
2024-02-26 02:00 pm NE 13.0 17.1----30.18-0.06 72.9 74.5----
2024-02-26 01:54 pmENE 15.9 20.0----30.18- 72.7 74.5----